GW0067 Weather Reports


time (UTC)temp
F
wind
direction
speed
knots
gust
knots
rain 1hr
in
rain 24hr
in
rain mn
in
humidity
%
barometer
mb
20260506222504 44 347 0.0 0.0 0.00 0.04 0.01 82 1015.7
20260506222005 44 347 0.0 0.0 0.00 0.04 0.01 81 1015.6
20260506221514 44 347 0.0 0.0 0.00 0.04 0.01 80 1015.5
20260506221007 45 347 0.0 0.0 0.00 0.04 0.01 79 1015.4
20260506220507 45 347 0.0 0.0 0.00 0.04 0.01 79 1015.4
20260506220023 45 347 0.0 0.0 0.00 0.04 0.01 78 1015.4
20260506215512 46 347 0.0 0.0 0.00 0.04 0.01 76 1015.4
20260506215008 46 347 0.0 0.0 0.00 0.04 0.01 75 1015.3
20260506214524 47 347 0.0 0.0 0.00 0.04 0.01 74 1015.4
20260506214010 47 347 0.0 0.0 0.00 0.04 0.01 74 1015.4
20260506213511 48 347 0.0 0.0 0.00 0.04 0.01 73 1015.4
20260506213027 48 347 0.0 0.0 0.00 0.04 0.01 72 1015.3
20260506212507 48 347 0.0 0.0 0.00 0.04 0.01 72 1015.3
20260506212007 49 347 0.0 0.0 0.00 0.04 0.01 71 1015.4
20260506211530 49 347 0.0 0.0 0.00 0.04 0.01 70 1015.4
20260506211007 50 347 0.0 0.0 0.00 0.04 0.01 69 1015.4
20260506210507 50 347 0.0 0.0 0.00 0.04 0.01 68 1015.3
20260506210015 50 347 0.0 0.0 0.00 0.04 0.01 67 1015.3
20260506205507 50 82 0.0 0.0 0.00 0.04 0.01 67 1015.2
20260506205008 51 45 0.0 0.0 0.00 0.04 0.01 66 1015.2
20260506204519 51 45 0.0 0.0 0.00 0.04 0.01 66 1015.1
20260506204007 51 79 0.0 0.0 0.00 0.04 0.01 65 1015.1
20260506203508 51 79 0.0 0.0 0.00 0.04 0.01 65 1015.1
20260506203023 51 79 0.0 0.0 0.00 0.04 0.01 64 1015.1
20260506202510 51 96 0.0 0.0 0.00 0.04 0.01 64 1015.1
20260506202012 51 106 0.0 0.0 0.00 0.04 0.01 63 1015.0
20260506201536 52 77 0.0 0.0 0.00 0.04 0.01 63 1015.0
20260506201008 52 75 0.0 0.0 0.00 0.04 0.01 62 1014.9
20260506200509 52 97 0.0 0.0 0.00 0.04 0.01 62 1014.8
20260506200026 52 316 0.0 0.0 0.00 0.04 0.01 62 1014.8
20260506195508 52 239 0.0 0.0 0.00 0.04 0.01 62 1014.7
20260506195008 52 253 0.0 0.0 0.00 0.04 0.01 62 1014.6
20260506194515 52 230 0.0 0.0 0.00 0.04 0.01 61 1014.6
20260506194007 52 251 0.0 0.0 0.00 0.04 0.01 62 1014.5
20260506193508 52 255 0.0 0.0 0.00 0.04 0.01 62 1014.4
20260506193025 52 230 0.0 0.0 0.00 0.04 0.01 62 1014.3
20260506192508 53 98 0.0 0.0 0.00 0.04 0.01 62 1014.4
20260506192010 53 250 0.0 0.0 0.00 0.04 0.01 62 1014.3
20260506191524 53 245 0.0 0.0 0.00 0.04 0.01 61 1014.3
20260506191011 53 252 0.0 0.0 0.00 0.04 0.01 62 1014.2
20260506190512 53 250 0.0 0.0 0.00 0.04 0.01 62 1014.3
20260506190029 53 251 0.0 0.0 0.00 0.04 0.01 62 1014.2
20260506185508 53 259 0.0 0.0 0.00 0.04 0.01 62 1014.2
20260506185011 53 259 0.0 0.0 0.00 0.04 0.01 61 1014.2
20260506184527 53 258 0.0 0.0 0.00 0.04 0.01 61 1014.2
20260506184011 53 258 0.0 0.0 0.00 0.04 0.01 62 1014.2
20260506183510 53 82 0.0 0.0 0.00 0.04 0.01 62 1014.2
20260506183018 54 257 0.0 0.0 0.00 0.04 0.01 61 1014.2
20260506182507 54 257 0.0 0.0 0.00 0.04 0.01 61 1014.1
20260506182012 54 241 0.0 0.0 0.00 0.04 0.01 61 1014.1
20260506181522 54 102 0.0 0.0 0.00 0.04 0.01 60 1014.1
20260506180509 54 237 0.0 0.0 0.00 0.04 0.01 59 1014.0
20260506180031 54 261 0.0 0.0 0.00 0.04 0.01 59 1013.9
20260506174531 54 150 0.0 0.0 0.00 0.04 0.01 58 1013.8
20260506174010 54 251 0.0 0.0 0.00 0.04 0.01 58 1013.8
20260506173510 55 228 0.0 0.0 0.00 0.04 0.01 58 1013.8
20260506173028 55 238 0.0 0.0 0.00 0.04 0.01 58 1013.8
20260506172507 55 94 0.0 0.0 0.00 0.04 0.01 58 1013.7
20260506172013 55 241 0.0 0.0 0.00 0.04 0.01 58 1013.7
20260506171539 55 162 0.0 0.9 0.00 0.04 0.01 58 1013.7
20260506171011 55 79 0.0 0.0 0.00 0.04 0.01 58 1013.7
20260506170514 56 264 0.0 0.9 0.00 0.04 0.01 58 1013.7
20260506170024 56 98 0.0 3.5 0.00 0.04 0.01 57 1013.7
20260506165508 55 235 0.0 3.5 0.00 0.04 0.01 58 1013.7
20260506165015 55 236 0.0 0.0 0.00 0.04 0.01 58 1013.7
20260506164531 55 250 0.0 0.0 0.00 0.04 0.01 57 1013.7
20260506163509 55 65 0.0 0.0 0.00 0.04 0.01 58 1013.7
20260506163028 56 81 0.0 0.0 0.00 0.04 0.01 57 1013.7
20260506162509 56 134 0.0 0.0 0.00 0.04 0.01 58 1013.7
20260506161510 56 26 0.0 2.6 0.00 0.04 0.01 55 1013.6
20260506161005 57 47 0.0 2.6 0.00 0.04 0.01 54 1013.7
20260506160505 57 214 0.0 0.0 0.00 0.04 0.01 53 1013.6
20260506160010 57 112 0.0 0.0 0.00 0.04 0.01 55 1013.7
20260506155508 56 53 0.0 3.5 0.00 0.04 0.01 55 1013.6
20260506155004 56 236 0.0 3.5 0.00 0.04 0.01 56 1013.6
20260506154511 56 261 0.0 0.0 0.00 0.04 0.01 57 1013.6
20260506154006 56 74 0.0 0.0 0.00 0.04 0.01 57 1013.6
20260506153505 56 8 0.0 4.3 0.00 0.04 0.01 57 1013.7
20260506153012 56 33 0.0 4.3 0.00 0.04 0.01 56 1013.8
20260506152505 57 20 0.0 3.5 0.00 0.04 0.01 57 1013.7
20260506151511 58 101 0.0 3.5 0.00 0.04 0.01 54 1013.8
20260506150013 57 63 0.0 0.9 0.00 0.04 0.01 56 1013.7
20260506145507 57 64 0.0 4.3 0.00 0.04 0.01 57 1013.8
20260506145007 57 207 0.0 6.1 0.00 0.04 0.01 55 1013.8
20260506144505 57 274 0.0 7.0 0.00 0.04 0.01 53 1013.9
20260506144006 58 79 0.0 7.0 0.00 0.04 0.01 54 1013.7
20260506143505 58 98 0.0 0.9 0.00 0.04 0.01 55 1013.7
20260506143007 58 246 0.0 7.0 0.00 0.04 0.01 54 1013.7
20260506142505 58 60 0.0 7.0 0.00 0.04 0.01 51 1013.7
20260506142007 59 236 0.0 4.3 0.00 0.04 0.01 51 1013.7
20260506141514 58 30 0.9 4.3 0.00 0.04 0.01 55 1013.7
20260506141008 58 53 0.0 4.3 0.00 0.04 0.01 53 1013.7
20260506140024 57 92 0.0 7.0 0.00 0.04 0.01 54 1013.7
20260506135507 58 42 0.9 9.6 0.00 0.04 0.01 51 1013.8
20260506135006 58 245 0.0 9.6 0.00 0.04 0.01 52 1013.7
20260506134514 58 225 1.7 9.6 0.00 0.04 0.01 52 1013.7
20260506134011 59 11 0.9 9.6 0.00 0.04 0.01 52 1013.7
20260506133506 60 34 0.9 8.7 0.00 0.04 0.01 50 1013.7
20260506133020 59 59 0.0 4.3 0.00 0.04 0.01 49 1013.6
20260506132005 58 114 0.9 6.1 0.00 0.04 0.01 51 1013.6
20260506130507 59 217 0.9 3.5 0.00 0.04 0.01 48 1013.7
20260506130013 59 93 0.0 7.0 0.00 0.04 0.01 49 1013.8
20260506125012 60 56 0.0 2.6 0.00 0.04 0.01 48 1013.7
20260506124521 59 237 0.0 2.6 0.00 0.04 0.01 50 1013.8
20260506124006 58 240 0.0 5.2 0.00 0.04 0.01 52 1013.7
20260506123508 59 245 0.9 4.3 0.00 0.04 0.01 49 1013.8
20260506123015 59 229 0.0 4.3 0.00 0.04 0.01 49 1013.7
20260506122510 59 224 0.0 4.3 0.00 0.04 0.01 49 1013.7
20260506122011 58 95 0.0 7.0 0.00 0.04 0.01 51 1013.8
20260506121518 58 62 1.7 7.0 0.00 0.04 0.01 50 1013.7
20260506121010 58 264 0.0 4.3 0.00 0.04 0.01 51 1013.7
20260506120011 58 41 0.0 7.0 0.00 0.04 0.01 52 1013.7
20260506115506 58 190 0.0 7.0 0.00 0.04 0.01 50 1013.8
20260506114531 57 227 0.0 4.3 0.00 0.04 0.01 52 1013.8
20260506114006 57 46 0.0 3.5 0.00 0.04 0.01 52 1013.8
20260506113021 57 46 0.0 4.3 0.00 0.04 0.01 53 1013.9
20260506112510 57 155 0.0 4.3 0.00 0.04 0.01 54 1013.9
20260506112007 57 70 0.0 3.5 0.00 0.04 0.01 53 1013.9
20260506111522 57 139 0.0 4.3 0.00 0.04 0.01 55 1013.9
20260506111012 56 60 0.9 7.0 0.00 0.04 0.01 54 1014.0
20260506110512 57 44 0.9 7.8 0.00 0.04 0.01 54 1013.8
20260506110022 57 233 0.0 7.8 0.00 0.04 0.01 57 1014.0
20260506105513 57 247 0.0 5.2 0.00 0.04 0.01 57 1014.0
20260506104514 57 246 0.0 4.3 0.00 0.04 0.01 56 1014.0
20260506104008 57 243 0.0 0.9 0.00 0.04 0.01 58 1014.0
20260506103018 57 98 0.0 0.9 0.00 0.04 0.01 58 1014.0
20260506102510 56 81 0.0 5.2 0.00 0.04 0.01 60 1014.1
20260506102005 56 244 0.0 5.2 0.00 0.04 0.01 60 1014.1
20260506101505 56 59 0.0 3.5 0.00 0.04 0.01 59 1014.2
20260506101003 56 247 0.0 0.0 0.00 0.04 0.01 59 1014.1
20260506100503 55 287 0.0 1.7 0.00 0.04 0.01 62 1014.2
20260506100018 54 17 0.0 1.7 0.00 0.04 0.01 58 1014.2
20260506095504 54 348 0.0 3.5 0.00 0.04 0.01 58 1014.1
20260506095006 54 227 0.0 3.5 0.00 0.04 0.01 59 1014.1
20260506094509 54 326 0.0 1.7 0.00 0.04 0.01 59 1014.0
20260506094007 54 66 0.0 3.5 0.00 0.04 0.01 62 1014.0
20260506093509 54 245 0.0 3.5 0.00 0.04 0.01 61 1014.0
20260506093016 54 231 0.0 3.5 0.00 0.04 0.01 64 1014.1
20260506092511 53 227 0.0 0.9 0.00 0.04 0.01 64 1014.1
20260506091505 53 191 0.0 5.2 0.00 0.04 0.01 64 1014.1
20260506091002 53 249 0.0 5.2 0.00 0.04 0.01 63 1014.0
20260506090004 52 131 0.0 2.6 0.00 0.04 0.01 65 1014.0
20260506085507 52 131 0.0 3.5 0.00 0.04 0.01 67 1014.1
20260506085004 52 237 0.0 3.5 0.00 0.04 0.01 68 1014.0
20260506084506 52 83 0.0 3.5 0.00 0.04 0.01 68 1014.0
20260506084004 51 243 0.0 1.7 0.00 0.04 0.01 69 1014.1
20260506083506 51 360 0.0 1.7 0.00 0.04 0.01 70 1014.2
20260506083022 50 101 0.0 0.9 0.00 0.04 0.01 70 1014.2
20260506082509 50 0.0 0.0 0.00 0.04 0.01 1014.2
20260506082012 50 0.0 1.7 0.00 0.04 0.01 72 1014.1
20260506081524 50 266 0.0 1.7 0.00 0.04 0.01 72 1014.1
20260506081013 50 248 0.0 0.9 0.00 0.04 0.01 72 1014.1
20260506073504 49 240 0.0 7.0 0.00 0.04 0.01 74 1014.0
20260506073025 48 37 0.0 5.2 0.00 0.04 0.01 75 1014.1
20260506072512 48 160 0.0 5.2 0.00 0.04 0.01 75 1014.2
20260506072011 48 70 0.9 5.2 0.00 0.04 0.01 75 1014.2
20260506071527 48 136 0.0 2.6 0.00 0.04 0.01 76 1014.1
20260506071006 48 136 0.0 1.7 0.00 0.04 0.01 76 1014.0
20260506070508 48 243 0.0 6.1 0.00 0.04 0.01 77 1014.0
20260506062504 46 240 0.0 3.5 0.00 0.04 0.01 80 1013.8
20260506062004 46 229 0.0 3.5 0.00 0.04 0.01 80 1013.7
20260506061513 46 259 0.0 3.5 0.00 0.04 0.01 81 1013.6
20260506061008 46 114 0.0 5.2 0.00 0.04 0.01 81 1013.6
20260506060505 46 261 0.9 6.1 0.00 0.04 0.01 81 1013.6
20260506051008 46 244 0.0 1.7 0.00 0.04 0.01 83 1013.4
20260506050512 46 316 0.0 1.7 0.00 0.04 0.01 83 1013.3
20260506045011 46 205 0.0 2.6 0.00 0.04 0.01 83 1013.3
20260506044528 46 243 0.0 4.3 0.00 0.04 0.01 83 1013.3
20260506044008 46 92 0.9 4.3 0.00 0.04 0.01 83 1013.3
20260506043508 46 229 0.0 1.7 0.00 0.04 0.01 83 1013.2
20260506042510 46 249 0.0 0.0 0.00 0.04 0.01 82 1013.3
20260506042009 46 229 0.0 0.0 0.00 0.04 0.01 82 1013.3
20260506041528 46 108 0.0 0.9 0.00 0.04 0.01 82 1013.3
20260506041008 46 83 0.0 0.9 0.00 0.04 0.01 82 1013.3
20260506040513 46 217 0.0 2.6 0.00 0.04 0.01 82 1013.3
20260506040026 46 62 0.0 2.6 0.00 0.04 0.01 82 1013.3
20260506035504 46 132 0.0 1.7 0.00 0.04 0.01 83 1013.3
20260506035007 46 242 0.0 4.3 0.00 0.04 0.01 83 1013.3
20260506034512 46 248 0.0 4.3 0.00 0.04 0.01 83 1013.3
20260506034008 47 108 0.0 0.0 0.00 0.04 0.01 84 1013.3
20260506033505 47 169 0.0 0.9 0.00 0.04 0.01 84 1013.2
20260506033026 47 21 0.0 0.9 0.00 0.04 0.01 84 1013.3
20260506032508 47 205 0.0 3.5 0.00 0.04 0.01 84 1013.3
20260506032011 47 38 0.0 3.5 0.00 0.04 0.01 84 1013.3
20260506031531 47 63 0.0 3.5 0.00 0.04 0.01 84 1013.3
20260506031009 47 88 0.0 1.7 0.00 0.04 0.01 84 1013.3
20260506030511 47 252 0.0 2.6 0.00 0.04 0.01 84 1013.3
20260506030046 47 10 0.0 2.6 0.00 0.04 0.01 84 1013.3
20260506025511 47 63 0.0 0.9 0.00 0.04 0.01 84 1013.4
20260506025012 47 77 0.0 0.9 0.00 0.04 0.01 84 1013.4
20260506024531 47 90 0.0 1.7 0.00 0.04 0.01 84 1013.4
20260506024008 47 68 0.0 1.7 0.00 0.04 0.01 84 1013.3
20260506023508 47 252 0.0 0.9 0.00 0.04 0.01 84 1013.4
20260506023015 47 271 0.0 0.9 0.00 0.04 0.01 84 1013.3
20260506022506 48 281 0.0 0.9 0.00 0.04 0.01 85 1013.3
20260506022006 48 255 0.0 0.0 0.00 0.04 0.01 85 1013.4
20260506021521 48 269 0.0 0.9 0.00 0.04 0.01 85 1013.4
20260506021008 48 221 0.0 0.9 0.00 0.04 0.01 85 1013.3
20260506020512 48 248 0.0 3.5 0.00 0.04 0.01 86 1013.4
20260506020025 48 247 0.0 3.5 0.00 0.04 0.01 86 1013.4
20260506015512 48 125 0.0 0.0 0.00 0.04 0.01 86 1013.4
20260506015010 48 25 0.0 1.7 0.00 0.04 0.01 86 1013.4
20260506014524 48 17 0.0 1.7 0.00 0.04 0.01 86 1013.4
20260506014008 48 200 0.0 0.0 0.00 0.04 0.01 85 1013.4
20260506013511 48 63 0.0 0.0 0.00 0.04 0.01 85 1013.4
20260506013025 48 122 0.0 0.0 0.00 0.04 0.01 85 1013.4
20260506012509 48 265 0.0 2.6 0.00 0.04 0.01 85 1013.5
20260506012004 48 59 0.0 2.6 0.00 0.04 0.01 85 1013.5
20260506011534 48 251 0.0 0.9 0.00 0.04 0.01 85 1013.5
20260506011008 48 97 0.0 0.9 0.00 0.04 0.01 85 1013.5
20260506010503 48 72 0.0 0.0 0.00 0.04 0.01 85 1013.5
20260506010007 48 72 0.0 0.0 0.00 0.04 0.01 85 1013.5
20260506005507 49 72 0.0 0.0 0.00 0.04 0.01 85 1013.5
20260506005003 49 37 0.0 4.3 0.00 0.04 0.01 84 1013.5
20260506004517 49 249 0.0 4.3 0.00 0.04 0.01 84 1013.5
20260506004004 49 86 0.0 0.0 0.00 0.04 0.01 84 1013.5
20260506003504 49 108 0.0 0.0 0.00 0.04 0.01 84 1013.5
20260506003015 49 54 0.0 0.9 0.00 0.04 0.01 84 1013.5
20260506002505 49 102 0.0 5.2 0.00 0.04 0.01 84 1013.5
20260506002017 49 60 0.0 6.1 0.00 0.04 0.01 84 1013.5
20260506001518 49 68 0.9 6.1 0.00 0.04 0.01 84 1013.6
20260506001002 49 78 0.0 2.6 0.00 0.04 0.01 84 1013.5
20260506000506 49 6 0.0 2.6 0.00 0.04 0.01 84 1013.5
20260506000006 49 53 0.0 2.6 0.01 0.04 0.01 84 1013.5
20260505235503 49 68 0.0 3.5 0.01 0.04 0.01 84 1013.6
20260505235003 49 99 0.0 3.5 0.03 0.04 0.01 84 1013.6
20260505234506 49 122 0.0 2.6 0.04 0.04 0.01 84 1013.6
20260505234005 49 356 0.0 2.6 0.04 0.04 0.01 84 1013.6
20260505233505 49 25 0.0 3.5 0.04 0.04 0.01 84 1013.6
20260505233007 49 60 0.0 3.5 0.04 0.04 0.01 84 1013.5
20260505232502 49 259 0.0 1.7 0.04 0.04 0.01 85 1013.6
20260505232005 50 52 0.0 1.7 0.04 0.04 0.01 85 1013.5
20260505231522 50 330 0.0 0.0 0.04 0.04 0.01 85 1013.5
20260505231010 50 102 0.0 2.6 0.04 0.04 0.01 84 1013.6
20260505230506 50 44 0.0 3.5 0.04 0.04 0.01 83 1013.6
20260505230024 51 79 0.0 3.5 0.03 0.03 0.00 82 1013.7
20260505225509 51 270 0.0 5.2 0.03 0.03 0.03 80 1013.7
20260505225003 52 1 0.0 5.2 0.01 0.01 0.01 78 1013.5
20260505224504 52 276 0.0 4.3 0.00 0.00 0.00 75 1013.5
20260505224003 53 90 0.9 0.0 0.00 0.00 0.00 1013.5
20260505223512 53 0.0 0.0 0.00 0.00 0.00 74 1013.4
20260505223027 53 200 0.9 1.7 0.00 0.00 0.00 74 1013.4